GEFSSE_500_meanwind_228.txt.gz
Wind_Speed
11 12 12 13 14 14 14 13 13 12 11 10 10 10 10 10 12 12 12 11 12 11 11 11 11 11 10 10 10 10 10 10 10 9 9 9 9 8 8 8 8 8 7
10 11 12 13 13 13 13 13 12 11 10 10 10 10 10 10 12 11 11 11 12 11 11 11 11 11 11 10 10 10 10 10 10 9 9 9 9 9 8 8 8 8 8
10 11 12 13 12 12 13 12 12 11 11 11 10 11 11 11 11 11 11 11 11 11 11 11 11 11 11 10 10 10 10 10 9 9 9 9 9 9 8 8 8 8 8
10 11 12 12 12 12 12 12 12 11 11 10 10 10 11 11 11 10 11 11 11 11 11 11 11 10 10 10 10 10 10 9 9 9 9 9 9 9 8 8 8 8 8
11 11 11 12 11 11 11 10 10 10 10 10 10 10 10 10 10 10 10 11 10 10 10 10 10 10 10 10 10 10 10 9 10 10 9 9 9 9 8 8 8 8 8
11 11 11 11 11 11 10 10 11 10 10 10 10 10 10 10 11 10 10 10 10 10 10 10 10 10 10 10 9 10 9 10 10 10 10 9 9 8 8 8 8 8 7
11 11 11 11 11 11 10 10 10 10 10 10 10 10 10 10 10 10 10 10 10 10 10 10 10 10 10 9 9 9 9 10 10 9 9 9 9 8 8 7 7 7 7
11 11 11 10 10 10 9 10 10 9 10 10 10 10 11 10 10 9 9 9 9 9 9 9 10 9 9 9 9 9 9 9 8 9 8 8 8 7 7 7 7 6 6
12 11 11 11 10 9 9 9 10 10 10 10 10 10 10 9 9 9 9 9 9 9 9 9 9 9 9 9 9 9 8 8 8 8 8 8 7 6 6 6 6 6 5
13 12 11 11 10 9 9 9 9 9 9 10 10 9 9 8 8 7 7 8 8 8 8 8 8 8 8 8 8 8 8 8 8 8 8 8 7 6 6 6 5 5 4
14 12 12 11 10 10 9 9 9 9 9 9 9 8 8 8 7 7 6 7 7 7 7 7 7 7 7 7 8 7 8 8 7 7 7 7 7 6 6 6 5 4 4
15 13 12 12 11 11 10 9 9 8 8 8 7 7 7 7 7 7 6 6 7 7 7 7 6 7 6 6 6 6 6 7 7 6 6 6 5 5 5 5 5 4 4
16 15 13 13 11 11 11 10 9 8 8 7 7 7 7 7 6 6 5 5 6 6 6 6 6 6 6 5 5 5 4 5 5 5 5 4 4 4 4 3 3 3 3
16 16 14 13 12 11 10 10 9 8 8 8 7 7 6 6 5 5 5 5 5 5 5 5 5 5 5 4 3 3 3 3 3 3 3 3 3 3 3 3 2 2 2
16 15 14 13 12 11 10 8 8 8 8 7 7 6 6 5 5 4 4 3 4 3 4 4 3 3 3 2 2 2 2 2 2 2 2 2 2 2 2 3 3 3 3
17 16 15 14 13 11 10 8 8 8 7 7 6 5 5 4 4 3 3 2 2 2 2 2 2 2 1 1 1 1 1 2 2 2 2 2 3 3 3 3 4 4 5
17 16 15 14 13 11 10 9 8 7 7 6 5 5 4 4 3 2 2 1 1 1 2 2 2 1 1 1 1 2 2 3 3 3 4 4 4 5 5 5 6 6 6
16 16 15 15 13 12 11 10 9 8 7 6 5 4 4 3 3 2 1 0 0 1 1 2 2 2 2 3 3 3 4 4 4 4 5 5 6 6 6 7 8 8 8
16 16 15 14 14 12 11 10 9 8 7 6 5 4 4 3 2 1 1 1 1 1 2 2 3 3 3 4 4 4 5 5 5 5 6 6 7 8 8 8 8 9 9
16 16 16 15 14 12 10 10 9 8 7 6 6 5 4 3 2 1 2 2 2 2 2 3 4 4 5 5 6 6 6 6 6 7 8 8 8 9 9 9 9 10 10
16 16 15 15 14 13 11 10 9 8 7 6 5 5 3 3 2 2 3 2 2 3 3 4 4 5 6 6 7 7 7 7 8 8 8 9 9 10 10 10 10 10 11
15 15 14 13 13 12 11 10 10 9 7 6 5 5 4 3 3 4 4 3 3 4 4 5 5 5 6 7 7 8 8 9 9 10 10 10 10 10 11 11 11 11 12
14 14 14 14 13 12 11 10 10 9 8 7 6 5 5 4 4 5 5 5 5 5 6 6 6 6 7 7 7 8 9 10 10 11 10 10 10 11 11 12 12 12 13
13 13 14 13 12 12 11 10 9 9 8 8 7 6 6 6 5 6 6 7 6 6 7 7 8 9 9 9 8 9 10 10 11 11 12 12 12 12 13 13 13 13 13
14 13 13 12 12 11 12 11 9 9 9 9 8 7 6 6 7 7 7 7 7 7 8 8 9 9 10 10 10 10 10 11 11 11 12 13 14 14 14 13 13 14 14
12 12 12 12 12 12 11 11 10 10 10 10 9 8 8 8 7 7 7 7 8 8 9 10 10 10 11 11 11 11 11 11 12 12 13 14 14 14 14 14 14 14 15

GEFSSE_500_meanwind_234.txt.gz
Wind_Speed
11 11 11 11 11 12 12 11 12 12 12 12 13 13 13 13 14 14 14 14 14 13 12 12 12 12 11 12 11 11 11 10 9 8 8 7 7 7 6 6 6 6 6
10 11 11 10 11 12 12 11 12 12 12 12 13 12 13 13 13 13 14 14 13 13 13 12 12 11 12 12 11 11 10 10 9 8 8 8 7 7 6 6 6 6 6
10 10 10 11 10 11 11 11 12 12 12 12 13 13 13 12 13 13 14 13 13 12 12 12 12 12 12 12 11 11 10 10 9 9 8 8 7 7 6 6 6 6 6
9 10 10 10 10 11 11 11 12 12 12 12 13 13 12 12 13 12 12 12 13 12 12 12 13 12 12 11 11 10 10 10 9 9 8 8 7 7 7 6 6 6 6
9 9 9 9 10 10 11 11 12 12 13 13 14 13 12 13 12 11 12 12 12 12 12 12 12 11 11 11 11 10 10 10 9 9 8 7 7 7 7 7 6 6 6
9 9 9 9 10 10 11 12 12 12 12 13 13 13 12 13 12 11 12 12 12 12 12 11 11 11 11 10 10 10 10 10 9 8 8 7 7 7 6 6 6 6 5
9 8 8 9 10 10 11 11 12 12 12 12 13 13 12 12 12 12 11 12 11 11 11 11 11 10 10 10 9 9 10 9 8 7 7 7 6 6 6 5 5 5 5
9 8 8 8 9 10 10 11 11 11 12 12 12 12 12 11 12 11 11 11 11 11 11 11 10 9 9 9 9 9 8 8 7 7 6 6 5 5 5 5 5 5 4
10 9 9 9 9 9 10 11 11 11 11 11 11 11 11 10 11 11 10 10 10 10 10 9 9 9 9 8 8 8 8 7 7 6 6 5 5 5 4 4 4 4 3
11 10 10 10 9 9 9 10 10 10 10 10 10 10 10 10 10 10 9 9 9 9 9 8 8 8 9 8 8 8 7 7 6 6 6 5 5 4 4 4 4 3 3
12 12 10 10 9 10 9 9 10 10 10 9 9 8 9 9 9 9 8 8 8 8 8 8 7 8 8 8 8 7 7 6 6 5 5 4 4 4 4 4 3 3 3
12 12 11 11 10 10 10 9 10 9 9 9 8 7 7 7 7 8 8 7 7 7 7 7 7 7 7 7 7 6 6 5 4 4 4 4 3 3 3 3 2 2 2
13 12 11 11 10 9 9 9 9 9 8 8 8 7 7 7 7 7 7 6 7 7 6 6 7 6 6 6 5 5 4 3 2 2 2 2 2 1 1 1 1 1 0
14 13 12 11 11 10 9 9 9 8 8 7 7 7 7 7 6 6 6 5 6 6 6 6 5 5 4 4 3 2 1 1 1 1 1 1 1 1 2 1 1 1 1
14 13 13 12 11 11 9 8 8 8 7 6 6 6 6 6 5 4 4 4 4 4 4 4 4 4 3 2 2 1 1 1 1 1 1 1 2 2 2 2 1 2 3
14 14 13 12 12 11 10 9 7 7 7 7 6 5 5 4 3 3 3 3 3 4 3 3 3 3 2 2 2 2 3 3 2 2 2 3 3 4 4 3 3 3 3
14 14 13 13 12 12 11 10 8 7 6 7 6 5 4 3 2 2 1 2 2 3 3 3 2 2 2 2 2 2 3 3 4 4 4 5 5 5 5 5 5 5 5
13 13 13 13 13 12 12 11 10 8 6 6 5 4 3 3 2 2 1 0 0 1 2 2 2 3 2 2 3 3 3 4 4 5 6 6 6 6 6 6 6 6 7
13 13 12 12 12 12 12 11 9 8 7 5 5 3 3 2 2 1 1 1 0 1 2 2 3 3 3 3 4 4 5 5 5 6 6 7 7 7 8 7 7 7 8
14 13 12 11 11 11 11 10 9 8 7 6 4 4 3 2 2 2 2 1 2 2 2 2 3 3 3 4 5 5 5 6 6 7 7 8 8 8 8 8 8 9 9
14 13 13 12 11 10 10 9 8 8 7 6 5 4 3 3 3 3 3 3 3 3 3 3 4 4 5 5 5 6 7 7 7 7 8 8 9 9 9 9 9 10 11
14 13 13 12 12 11 10 9 8 8 7 6 5 4 4 4 4 4 4 4 3 3 4 5 5 5 5 6 6 7 8 8 9 9 9 9 10 10 10 10 11 12 12
13 13 13 12 12 11 10 9 9 9 8 7 6 5 5 5 5 5 4 5 5 5 6 6 6 6 7 7 8 8 8 9 10 10 11 11 12 12 12 13 13 13 13
11 12 12 12 12 11 10 9 9 9 9 8 8 7 7 7 7 6 6 6 6 6 7 7 7 7 8 8 8 8 9 10 11 12 12 13 13 13 14 14 14 14 14
10 11 11 12 12 12 11 9 9 9 9 9 9 8 8 8 7 7 7 7 7 8 8 8 8 9 9 9 10 10 11 12 12 13 13 14 14 15 15 16 16 15 15
10 10 10 11 11 12 11 10 10 10 10 10 10 10 9 8 8 8 8 8 8 8 9 9 10 10 10 11 11 11 12 13 14 14 13 14 15 15 16 16 16 17 17

GEFSSE_500_meanwind_240.txt.gz
Wind_Speed
7 7 8 8 8 7 6 7 7 8 8 9 10 11 11 12 12 12 13 13 12 12 13 12 12 12 11 11 10 10 10 9 9 8 8 7 6 6 6 6 6 6 5
7 6 7 7 7 7 6 6 8 9 9 10 11 11 11 12 12 12 12 12 12 12 13 12 12 12 11 11 10 10 10 9 9 8 8 7 7 7 7 6 6 5 5
7 6 6 6 6 6 7 7 8 9 10 11 11 11 11 11 11 12 12 12 12 13 13 12 12 12 11 11 10 10 9 9 9 8 8 7 7 7 7 6 5 5 5
7 6 6 6 6 7 8 8 8 9 9 10 11 11 11 12 11 11 12 12 12 13 13 12 12 12 11 11 10 10 9 9 8 8 8 7 7 6 6 6 5 4 4
6 6 6 6 6 6 7 9 8 9 9 10 10 10 11 11 11 11 12 12 12 12 12 12 11 11 11 10 10 9 9 9 9 8 7 7 6 6 5 5 4 4 3
6 6 6 6 7 7 7 9 9 8 9 9 10 10 10 11 11 12 11 11 11 11 11 11 11 10 10 10 10 9 9 9 8 7 7 6 5 5 5 4 3 3 3
6 6 6 7 7 7 7 9 9 9 9 10 10 9 10 10 11 11 11 11 11 10 10 10 9 9 9 9 9 8 8 8 7 7 6 6 5 5 4 4 3 2 2
8 8 7 7 7 7 7 8 9 9 9 9 9 9 9 10 10 10 10 10 10 9 9 9 8 8 8 8 8 7 7 8 7 7 6 5 5 5 4 4 3 3 2
9 8 8 7 7 6 7 8 8 9 9 8 8 8 9 9 9 9 10 10 9 8 8 7 8 8 7 7 7 7 6 6 6 6 6 5 5 4 4 4 4 3 2
10 9 8 8 7 7 7 7 8 8 8 8 8 8 8 9 9 9 9 9 8 7 7 6 6 7 6 6 6 6 5 5 5 5 4 5 5 4 4 4 4 3 2
11 10 9 8 7 7 7 7 7 7 8 7 7 7 8 8 8 8 7 7 6 6 6 6 6 6 6 5 5 5 4 4 4 4 4 4 4 4 3 3 3 3 2
12 11 10 9 8 8 7 7 7 7 7 6 7 7 7 7 7 7 6 6 5 5 5 6 5 5 5 4 4 3 3 2 3 3 3 3 4 3 2 2 3 3 3
13 12 11 10 9 8 8 7 7 7 7 6 6 6 6 6 6 5 5 5 5 5 5 4 4 3 3 2 2 2 1 1 2 2 3 3 3 2 2 2 2 3 3
13 12 11 10 10 9 8 7 7 7 7 6 6 5 5 5 5 4 4 4 4 4 3 3 2 2 2 1 1 0 1 2 2 2 3 3 3 3 3 2 3 3 3
14 13 12 11 10 9 8 7 7 6 6 6 6 5 5 4 4 4 3 3 3 3 2 2 2 2 2 2 2 2 2 3 3 2 3 3 3 3 4 4 4 4 4
14 13 13 12 11 10 9 7 7 6 6 6 6 5 4 4 3 3 3 2 2 2 1 1 1 2 2 3 3 4 4 4 4 3 3 3 3 3 4 5 4 4 5
14 13 14 13 12 10 10 9 7 6 6 5 5 5 4 3 3 3 2 2 1 1 1 1 0 1 2 3 3 4 4 4 4 4 4 4 4 4 5 5 6 6 6
15 14 13 13 12 11 10 9 8 6 6 6 5 5 5 4 4 3 2 2 2 1 1 2 3 2 2 2 3 4 4 5 5 5 5 5 6 5 6 7 7 7 7
16 15 14 13 12 12 11 10 9 8 7 6 6 6 6 5 5 4 4 3 3 3 2 2 3 3 3 3 4 5 6 6 6 6 6 6 6 6 7 8 8 8 8
16 15 15 13 12 12 11 10 9 8 8 7 6 6 6 5 5 5 5 5 4 4 3 3 4 4 4 5 5 6 6 6 7 7 7 7 7 8 9 9 9 9 9
15 15 15 15 13 13 12 11 10 9 9 7 6 6 5 5 5 6 6 6 6 5 5 5 5 5 5 6 6 6 7 7 7 8 8 8 9 10 11 11 11 11 11
15 15 15 14 14 14 13 12 11 10 9 9 7 7 5 5 6 7 7 7 6 6 6 6 7 6 7 7 7 7 8 8 9 9 9 10 11 11 12 12 12 13 13
15 15 15 15 15 14 14 14 13 11 11 10 9 8 7 6 7 7 7 7 7 7 7 7 7 7 8 8 9 9 9 10 10 11 11 12 12 13 13 13 14 15 14
14 14 14 14 15 14 14 15 14 13 12 11 10 9 9 8 8 8 8 7 8 8 8 8 8 8 9 9 10 10 11 11 11 12 13 13 13 14 14 14 15 15 15
13 14 14 15 14 14 14 14 14 13 13 12 11 11 10 10 10 9 9 8 8 9 9 9 10 10 10 10 11 11 12 12 12 13 13 14 14 15 14 14 15 15 16
12 13 14 14 14 14 14 15 14 13 13 13 12 12 11 11 11 10 10 9 9 9 10 10 11 11 12 12 11 11 12 13 13 14 14 14 15 15 15 15 16 16 16

GEFSSE_500_meanwind_246.txt.gz
Wind_Speed
8 8 7 7 7 7 7 7 7 7 7 7 8 9 10 11 11 11 11 13 13 13 13 12 12 12 11 11 11 10 10 9 8 8 8 8 7 7 7 7 7 7 6
8 8 8 8 8 8 8 8 8 8 8 8 9 9 10 11 11 11 12 13 13 13 13 13 12 12 12 11 11 11 10 10 9 8 8 7 7 7 7 7 7 7 6
9 9 8 9 9 8 8 8 8 9 9 9 9 10 10 11 12 12 12 13 13 13 12 12 12 12 11 11 11 11 10 10 9 8 8 8 7 6 6 6 7 6 6
9 8 8 9 9 8 8 9 9 9 9 9 10 11 11 11 12 12 12 12 12 12 12 12 11 11 11 10 10 10 10 10 9 8 8 7 7 7 6 6 6 6 5
8 8 8 8 9 9 9 9 9 9 9 10 11 11 11 11 11 12 12 12 12 12 12 11 11 10 10 10 10 10 9 9 8 8 8 7 7 7 6 6 5 5 4
9 9 9 8 10 10 10 10 10 9 10 10 11 11 10 11 11 11 12 12 11 11 11 11 10 10 10 10 10 9 9 8 7 7 7 6 6 6 5 5 4 4 3
10 9 9 10 11 11 10 10 10 9 9 10 10 10 10 10 10 11 11 11 10 10 10 10 9 9 9 9 9 9 8 8 7 6 6 6 5 5 4 3 3 3 2
10 10 10 11 11 11 11 10 10 10 10 10 10 10 10 9 9 9 10 10 9 9 9 9 9 9 9 8 8 8 7 7 6 6 5 5 4 4 3 3 3 2 2
11 11 11 11 11 11 11 11 11 10 10 9 10 10 9 9 8 9 8 8 8 8 7 8 8 8 7 7 7 7 7 6 6 5 5 4 3 3 3 3 2 3 2
12 11 12 11 11 11 11 11 10 10 10 10 10 10 9 8 8 8 8 8 7 7 6 6 6 6 6 6 6 5 5 5 4 4 3 3 4 4 3 2 2 2 2
13 12 12 12 11 11 10 11 10 10 10 9 9 8 8 8 7 7 7 7 6 6 5 5 5 5 5 5 4 4 4 3 3 3 2 3 3 3 3 2 2 2 1
14 13 12 12 11 11 10 10 10 10 9 9 8 7 7 7 7 6 6 6 5 5 4 4 4 4 4 4 3 3 2 1 1 1 1 2 1 1 1 1 1 0 1
15 14 13 12 12 11 10 10 10 10 9 9 8 7 7 6 6 6 5 5 4 4 3 2 2 3 3 3 2 1 1 0 0 0 0 0 0 1 0 0 1 1 1
16 14 13 12 12 11 10 10 9 9 8 8 7 7 7 6 5 5 5 4 3 3 2 2 1 1 1 1 1 2 1 2 2 2 2 1 1 1 1 2 3 2 2
16 15 14 12 11 10 10 9 9 8 8 7 7 6 6 5 5 5 3 3 2 2 2 1 1 1 1 1 2 3 2 2 3 2 2 2 2 3 3 4 5 5 4
16 15 14 13 12 10 9 9 8 7 6 7 6 5 5 4 4 4 3 3 2 1 2 2 1 1 0 1 2 2 2 3 2 3 3 3 3 4 5 5 5 5 6
17 16 15 14 13 12 10 9 8 7 6 6 6 5 4 3 3 3 3 2 2 1 0 1 1 1 1 1 2 2 3 3 3 3 4 4 5 6 6 6 6 7 7
17 16 15 14 13 12 11 9 8 7 6 6 6 5 4 3 3 3 2 2 2 1 2 1 1 1 2 2 3 3 3 3 4 4 5 5 6 7 7 8 8 8 9
17 16 15 14 13 12 11 9 9 8 7 6 6 5 4 3 3 3 2 2 2 2 2 2 2 2 3 3 3 4 4 5 5 6 6 6 7 8 9 9 9 10 10
16 16 15 14 13 13 12 10 9 8 7 6 6 5 4 3 3 3 2 2 3 3 2 3 3 3 4 4 5 5 6 6 7 7 8 9 10 10 10 10 10 11 12
16 16 15 15 15 14 13 12 10 9 7 7 6 5 4 4 4 3 3 3 3 3 3 4 5 5 5 5 6 6 7 7 8 9 10 10 11 11 11 12 12 13 13
17 16 16 15 15 14 13 12 11 10 9 8 7 6 5 5 4 4 4 4 4 4 4 5 5 6 6 6 7 7 8 9 10 10 11 11 12 12 12 13 14 14 14
16 15 15 15 15 14 13 13 12 11 10 9 8 8 7 7 6 5 5 5 5 5 5 6 6 6 7 8 9 9 10 10 11 11 11 12 12 13 14 13 14 14 14
15 15 15 15 15 14 13 13 12 11 10 9 8 8 8 8 7 7 6 6 6 6 6 6 7 7 8 9 10 10 11 11 12 11 11 12 12 13 14 15 14 14 14
13 14 14 14 14 14 13 12 12 11 11 11 10 10 9 9 8 8 7 7 7 7 7 8 8 9 9 10 11 12 12 12 12 12 12 13 13 14 15 15 15 15 15
12 12 13 13 13 13 13 12 11 12 12 11 11 11 10 10 9 8 8 8 8 8 8 9 10 10 11 12 12 12 13 13 13 13 13 13 14 15 15 15 14 15 15

GEFSSE_500_meanwind_252.txt.gz
Wind_Speed
7 7 9 8 9 9 9 8 8 9 9 9 9 9 9 9 9 10 11 11 10 10 10 10 10 10 10 10 9 9 9 8 8 8 8 8 8 8 8 7 7 6 6
7 7 8 9 9 9 9 9 9 9 9 9 10 10 9 10 10 11 12 12 12 11 11 10 10 10 10 9 9 9 9 8 8 8 8 7 7 7 7 7 7 6 6
7 7 7 8 9 9 9 9 8 9 9 9 10 10 10 10 11 11 12 11 11 10 10 10 10 9 9 8 8 9 8 8 7 7 7 7 7 7 7 6 6 6 5
8 8 8 8 9 9 9 9 9 9 9 9 10 10 11 11 11 11 12 11 10 10 9 9 10 9 8 8 8 8 8 7 6 6 6 6 6 6 6 5 5 5 5
9 10 10 10 11 11 10 10 10 10 10 10 11 10 11 10 10 10 11 10 10 10 9 9 8 7 7 8 7 7 7 7 7 6 6 6 5 5 5 4 4 3 3
10 10 11 12 12 12 12 12 11 10 10 11 11 10 11 10 10 10 9 9 9 9 8 8 8 7 7 7 7 6 6 6 6 6 5 5 4 4 4 3 3 2 2
11 11 11 12 12 13 13 12 12 11 11 11 11 11 11 10 9 9 9 8 8 8 8 8 7 6 7 7 7 6 6 5 5 5 5 4 4 3 3 2 2 1 1
12 12 12 12 13 13 13 13 12 11 11 11 11 11 10 9 9 9 8 8 8 7 7 7 6 6 6 6 5 5 5 5 4 4 4 3 3 2 2 1 1 1 0
13 13 13 14 13 13 13 12 12 11 11 11 11 10 9 8 8 8 7 7 7 6 6 6 5 5 5 4 4 4 4 4 4 4 3 2 2 1 1 1 1 1 1
14 14 14 14 13 13 13 12 12 11 11 10 10 9 9 9 8 7 6 6 6 5 5 5 5 4 4 4 3 3 3 2 2 2 2 1 1 0 0 0 0 1 1
14 14 13 13 13 13 13 12 12 11 10 9 9 8 8 7 7 6 6 5 5 5 4 4 4 4 3 3 2 2 2 1 1 1 0 0 0 1 1 1 1 1 2
14 14 14 13 12 12 12 12 11 11 10 9 9 8 7 6 6 6 6 5 5 4 4 4 3 3 2 2 1 1 1 1 1 1 1 1 1 2 2 2 2 3 3
14 14 14 13 12 11 11 11 11 10 9 9 8 8 7 6 6 5 5 5 4 3 3 3 2 2 2 1 1 1 1 2 2 2 2 2 3 3 3 4 4 3 3
15 14 14 13 12 11 11 10 10 10 9 8 7 7 7 6 6 6 6 5 4 3 3 3 3 2 1 1 1 1 1 2 2 2 3 3 4 4 5 5 5 5 5
16 15 14 13 11 11 10 10 9 9 8 8 7 7 6 6 5 5 4 4 4 3 3 3 2 2 1 0 0 1 1 2 2 2 3 3 5 5 6 6 7 6 6
15 14 14 13 11 10 10 9 9 9 8 8 7 7 6 5 5 4 3 3 3 3 2 1 0 1 1 2 1 1 2 2 3 4 4 4 5 6 7 7 8 8 9
15 15 14 13 12 10 10 9 8 8 8 7 7 6 5 4 4 3 2 2 2 2 2 1 2 2 3 3 3 3 3 3 4 5 5 5 6 6 7 8 9 10 10
16 15 14 13 12 11 10 9 8 7 7 6 6 6 5 4 3 3 3 2 1 2 3 3 3 4 4 4 5 5 5 5 6 6 7 7 7 8 8 9 10 10 11
16 15 14 12 11 11 10 9 7 7 6 6 6 5 4 3 3 3 3 3 3 4 4 4 4 5 5 6 6 6 7 7 7 8 8 9 9 10 10 10 11 12 12
15 15 13 12 11 10 10 9 9 8 7 6 5 5 5 4 4 4 4 5 5 6 5 5 5 6 6 6 7 7 7 8 9 10 10 11 11 12 12 12 12 13 13
14 14 13 12 11 10 10 10 9 8 7 6 6 5 5 5 5 5 6 6 6 7 6 6 6 6 7 7 7 8 9 9 10 11 12 12 12 13 14 14 14 14 14
14 14 13 12 12 11 10 10 10 9 8 7 7 6 6 7 7 7 7 7 7 7 7 7 6 7 7 8 8 9 10 11 11 12 12 13 13 14 14 15 15 15 14
14 14 13 12 12 11 11 10 10 9 9 9 8 8 8 8 8 8 8 8 7 7 8 8 7 8 8 9 10 10 11 11 12 12 13 13 13 14 15 15 15 15 15
12 13 13 12 12 11 11 11 10 10 9 9 9 9 9 8 9 9 9 9 8 8 9 9 9 9 9 10 10 11 12 12 12 12 13 14 14 15 15 16 16 16 17
12 12 12 12 12 12 11 11 11 10 10 9 9 10 10 10 9 10 10 10 9 9 9 10 10 10 10 11 11 11 12 12 12 13 14 14 15 16 16 17 17 17 18
11 12 12 12 12 12 12 12 11 10 10 10 10 10 11 10 10 10 11 11 10 10 10 11 11 11 11 11 12 12 12 12 12 13 14 14 15 16 17 18 18 18 17